Location: Newark
(35.8833°N, 14.5000°E)
Time: 15:12:04
(UTC+00:00)

A-11 Canister half - All Passes

Search period start: 22 November 2019 00:00
Search period end: 02 December 2019 00:00
Orbit: 1527 x 1682 km, 47.3° (Epoch: 21 November)

Date Brightness Start Highest point End Pass type
(mag) Time Alt. Az. Time Alt. Az. Time Alt. Az.
22 Nov - 07:24:46 10° S 07:32:38 26° SE 07:40:24 10° ENE daylight
22 Nov - 09:26:42 10° SW 09:36:51 85° SE 09:46:47 10° ENE daylight
22 Nov - 11:33:08 10° W 11:42:46 49° NNW 11:52:07 10° ENE daylight
22 Nov - 13:40:23 10° WNW 13:49:44 45° N 13:58:46 10° E daylight
22 Nov - 15:46:07 10° NW 15:55:52 83° NE 16:05:16 10° ESE daylight
22 Nov - 17:52:07 10° WNW 18:00:09 32° SW 18:08:03 10° S visible
23 Nov - 07:03:26 10° S 07:11:02 25° SE 07:18:34 10° ENE daylight
23 Nov - 09:05:03 10° SW 09:15:12 81° SE 09:25:08 10° ENE daylight
23 Nov - 11:11:22 10° W 11:21:02 50° NNW 11:30:27 10° ENE daylight
23 Nov - 13:18:39 10° WNW 13:28:01 44° N 13:37:03 10° E daylight
23 Nov - 15:24:27 10° NW 15:34:13 80° NNE 15:43:39 10° ESE daylight
23 Nov - 17:30:21 10° WNW 17:38:35 34° SW 17:46:40 10° S visible
24 Nov - 06:42:07 10° S 06:49:27 23° SE 06:56:43 10° ENE daylight
24 Nov - 08:43:25 10° SW 08:53:32 78° SE 09:03:29 10° ENE daylight
24 Nov - 10:49:35 10° W 10:59:18 51° NNW 11:08:47 10° ENE daylight
24 Nov - 12:56:55 10° WNW 13:06:17 44° N 13:15:20 10° ENE daylight
24 Nov - 15:02:46 10° NW 15:12:34 77° NNE 15:22:00 10° ESE daylight
24 Nov - 17:08:35 10° WNW 17:17:01 36° SW 17:25:15 10° SSE visible
25 Nov - 06:20:50 10° S 06:27:52 22° SE 06:34:50 10° E daylight
25 Nov - 08:21:46 10° SW 08:31:53 75° SE 08:41:49 10° ENE daylight
25 Nov - 10:27:48 10° W 10:37:35 52° NNW 10:47:08 10° ENE daylight
25 Nov - 12:35:10 10° WNW 12:44:33 44° N 12:53:37 10° ENE daylight
25 Nov - 14:41:06 10° NW 14:50:54 75° NNE 15:00:21 10° ESE daylight
25 Nov - 16:46:51 10° WNW 16:55:26 39° SW 17:03:50 10° SSE visible
26 Nov - 05:59:36 10° SSE 06:06:16 20° SE 06:12:54 10° E daylight
26 Nov - 08:00:09 10° SW 08:10:14 72° SE 08:20:10 10° ENE daylight
26 Nov - 10:06:02 10° W 10:15:52 53° NNW 10:25:28 10° ENE daylight
26 Nov - 12:13:25 10° WNW 12:22:48 43° N 12:31:53 10° ENE daylight
26 Nov - 14:19:25 10° NW 14:29:14 72° NNE 14:38:42 10° ESE daylight
26 Nov - 16:25:06 10° WNW 16:33:52 41° SW 16:42:24 10° SSE visible
27 Nov - 05:38:24 10° SSE 05:44:42 19° ESE 05:50:57 10° E daylight
27 Nov - 07:38:33 10° SW 07:48:35 69° SE 07:58:29 10° ENE daylight
27 Nov - 09:44:16 10° W 09:54:08 55° NNW 10:03:48 10° ENE daylight
27 Nov - 11:51:40 10° WNW 12:01:04 43° N 12:10:10 10° ENE daylight
27 Nov - 13:57:44 10° NW 14:07:33 70° NNE 14:17:02 10° ESE daylight
27 Nov - 16:03:23 10° WNW 16:12:17 44° SW 16:20:57 10° SSE visible
28 Nov - 05:17:15 10° SSE 05:23:07 17° ESE 05:28:57 10° E visible
28 Nov - 07:16:56 10° SW 07:26:56 66° SE 07:36:49 10° ENE daylight
28 Nov - 09:22:29 10° W 09:32:25 56° NNW 09:42:08 10° NE daylight
28 Nov - 11:29:55 10° WNW 11:39:19 43° N 11:48:27 10° ENE daylight
28 Nov - 13:36:03 10° NW 13:45:54 67° NNE 13:55:22 10° ESE daylight
28 Nov - 15:41:39 10° WNW 15:50:42 46° SW 15:59:29 10° SSE daylight
29 Nov - 04:56:10 10° SSE 05:01:32 16° ESE 05:06:53 10° E visible
29 Nov - 06:55:21 10° SW 07:05:17 63° SE 07:15:09 10° ENE daylight
29 Nov - 09:00:44 10° W 09:10:42 58° NNW 09:20:28 10° NE daylight
29 Nov - 11:08:08 10° WNW 11:17:34 43° N 11:26:43 10° ENE daylight
29 Nov - 13:14:21 10° NW 13:24:12 65° NNE 13:33:41 10° ESE daylight
29 Nov - 15:19:55 10° WNW 15:29:06 49° SW 15:38:00 10° SSE daylight
30 Nov - 04:35:10 10° SSE 04:39:58 14° ESE 04:44:45 10° E visible
30 Nov - 06:33:45 10° SSW 06:43:39 60° SE 06:53:27 10° ENE daylight
30 Nov - 08:38:58 10° WSW 08:48:59 59° NNW 08:58:48 10° NE daylight
30 Nov - 10:46:23 10° WNW 10:55:49 43° N 11:05:01 10° ENE daylight
30 Nov - 12:52:40 10° NW 13:02:31 63° NNE 13:12:00 10° ESE daylight
30 Nov - 14:58:12 10° WNW 15:07:30 52° SW 15:16:30 10° SSE daylight
01 Dec - 04:14:17 10° SE 04:18:24 13° ESE 04:22:29 10° E visible
01 Dec - 06:12:11 10° SSW 06:22:00 57° SE 06:31:46 10° ENE daylight
01 Dec - 08:17:13 10° WSW 08:27:15 61° NNW 08:37:09 10° NE daylight
01 Dec - 10:24:36 10° WNW 10:34:04 43° N 10:43:17 10° ENE daylight
01 Dec - 12:30:59 10° NW 12:40:50 61° NNE 12:50:19 10° ESE daylight
01 Dec - 14:36:30 10° WNW 14:45:54 55° SW 14:55:01 10° SSE daylight
01 Dec - 16:46:48 10° WSW 16:49:18 11° WSW 16:51:45 10° SW visible
